Wind_Speed
57 52 46 44 44 46 47 46 46 47 49 51 50 50 51 50 48 46 44 43 43 44 46 49 50 51 52 52 54 56 57 58 59 59 59 58 57 55 53 52 51 51 50
43 37 34 33 34 37 40 41 42 44 46 47 48 48 49 49 45 43 42 42 42 44 46 48 49 49 50 50 51 52 54 56 57 57 56 55 54 52 50 50 49 48 47
35 31 29 28 28 30 32 34 36 39 42 44 44 44 46 46 43 41 42 43 43 44 45 46 47 48 48 48 49 50 52 54 54 54 53 52 51 49 48 48 47 46 45
32 30 28 27 27 26 26 26 28 33 36 40 40 41 41 40 39 40 42 43 44 44 44 44 44 44 45 46 47 48 49 50 50 50 49 49 48 47 46 45 45 45 44
32 30 28 27 26 25 23 23 23 25 29 32 35 37 38 38 38 40 42 44 44 43 42 40 40 40 41 42 43 44 46 46 46 46 45 44 44 44 43 43 44 44 43
32 30 28 27 26 24 22 22 22 23 24 26 29 31 33 35 36 38 41 42 42 40 39 38 38 38 38 38 39 41 42 43 43 44 43 43 42 41 40 41 41 42 42
32 31 28 27 26 24 22 21 20 21 22 24 25 28 30 32 34 36 38 40 39 39 38 38 38 36 35 36 37 39 40 42 43 44 42 42 41 40 40 40 40 41 42
33 31 29 28 26 24 23 21 20 20 21 23 24 26 28 30 33 35 36 37 38 38 37 37 36 35 34 35 36 38 40 42 43 44 44 43 42 42 42 41 41 42 43
34 32 30 29 28 26 24 22 21 21 22 23 24 25 27 30 32 34 35 35 36 36 35 34 34 34 33 34 35 37 40 42 43 44 44 44 43 43 43 43 43 43 44
36 34 32 31 30 29 27 25 24 24 24 24 25 26 27 29 31 33 34 34 35 35 34 33 33 34 34 34 35 36 38 40 41 43 44 44 44 45 45 45 45 46 46
38 36 34 33 32 31 30 29 28 28 28 28 28 28 29 30 31 33 34 35 35 35 34 32 33 33 34 34 35 36 38 39 40 42 43 44 45 46 46 47 47 47 48
39 38 36 34 33 33 32 32 32 32 32 32 32 33 33 33 34 35 35 36 36 35 35 34 34 34 34 34 35 36 37 39 41 42 44 45 46 47 48 48 49 49 50
40 38 37 36 35 34 34 34 33 34 35 36 37 37 38 38 38 39 39 39 40 39 39 39 38 38 37 37 36 36 36 38 40 43 45 47 48 49 50 51 51 51 51
42 40 38 37 36 36 35 35 36 36 37 38 39 41 42 43 44 44 44 44 45 45 45 45 45 43 43 42 41 40 39 39 40 42 44 47 49 51 52 53 53 53 53
45 43 41 40 39 38 38 38 38 38 39 40 41 43 45 47 48 50 50 50 51 51 52 52 52 51 50 49 48 47 46 45 45 45 46 48 50 51 53 54 54 54 54
48 47 46 45 44 43 43 43 42 42 42 43 44 45 47 49 51 53 55 56 56 57 57 58 58 58 57 56 55 54 53 52 51 50 50 50 51 52 53 54 55 55 54
53 52 51 51 50 50 50 49 49 49 49 49 49 50 51 52 54 55 58 59 60 61 62 62 63 63 63 62 62 61 60 58 57 56 55 55 54 54 54 54 54 54 54
57 56 56 55 55 55 56 56 57 57 57 57 58 58 58 58 59 60 61 62 63 64 65 66 66 67 67 67 66 66 65 64 63 61 60 59 58 57 56 56 55 55 54
54 53 52 52 52 52 53 54 56 57 59 60 62 64 65 66 66 66 67 67 68 68 69 69 70 70 70 70 69 69 68 67 66 65 64 63 62 61 60 59 58 57 56
47 46 45 43 42 42 42 42 43 45 47 50 54 57 61 64 67 69 71 73 73 74 74 74 74 74 74 74 73 72 71 70 69 69 67 66 65 64 63 61 60 59 58
42 41 39 38 37 36 35 34 33 33 33 34 37 39 43 47 52 57 62 67 71 74 76 78 79 79 79 78 78 77 75 74 73 72 71 70 68 67 65 64 63 61 59
42 41 40 39 38 37 36 35 33 32 31 30 30 30 30 32 34 38 42 47 52 58 64 69 73 77 79 81 81 81 80 79 78 77 76 74 72 70 69 67 65 64 62
44 44 43 42 41 39 38 36 35 34 33 32 31 30 29 28 28 28 29 32 35 39 44 49 54 59 65 70 74 77 78 80 80 80 79 78 76 75 73 71 69 67 65
47 46 45 44 42 41 40 39 38 36 35 34 33 32 31 30 29 27 26 26 26 28 30 33 36 40 45 50 55 60 65 69 72 74 76 76 76 76 74 73 72 71 69
49 49 48 47 45 44 43 42 41 39 37 35 34 33 32 31 30 29 27 25 24 23 23 23 25 26 29 32 36 40 45 49 53 57 61 64 65 66 67 67 67 68 67
52 52 51 51 50 49 48 46 43 41 38 35 33 31 30 29 29 29 28 26 23 21 19 18 18 17 18 19 21 24 27 30 33 36 39 41 44 46 48 50 52 54 55
Wind_Direction
307 301 292 282 274 269 266 264 261 256 252 250 249 253 255 253 253 251 249 250 253 255 255 254 254 254 255 255 254 252 251 249 248 245 244 245 246 246 248 250 251 250 250
318 312 304 295 285 276 270 267 263 258 253 250 248 250 250 249 247 248 249 252 255 258 258 256 255 255 254 253 253 252 250 248 246 242 241 243 245 246 248 250 250 249 249
324 320 314 306 299 290 279 272 266 260 255 251 250 249 249 247 246 248 252 255 258 260 259 258 256 254 253 253 252 252 249 246 243 240 239 241 244 245 247 249 249 248 247
327 324 319 314 311 305 292 280 272 264 259 254 251 250 249 247 247 250 253 256 259 261 261 259 256 253 253 254 253 252 248 243 240 238 237 239 242 244 245 247 248 247 245
327 323 320 318 315 313 303 289 279 269 260 255 252 250 249 248 250 252 254 258 260 261 260 259 257 255 254 254 253 250 243 238 236 235 236 238 239 241 242 244 245 245 244
325 322 319 317 316 314 308 299 285 273 261 254 252 251 251 249 251 253 256 258 260 260 260 261 259 256 254 252 251 245 237 234 231 232 235 238 239 240 241 242 242 242 243
322 320 317 314 313 312 309 302 291 277 264 255 250 248 249 249 250 252 255 258 259 260 262 262 258 254 253 250 246 239 234 232 232 233 235 238 240 241 242 241 241 242 244
319 316 314 311 309 307 305 301 292 280 268 256 249 246 246 248 250 252 253 256 259 261 262 259 254 252 251 248 244 238 234 233 233 235 237 239 240 241 243 243 243 244 245
318 313 310 307 304 302 300 296 289 282 274 264 255 249 247 248 250 251 253 255 257 259 258 255 251 248 246 245 243 240 238 236 236 238 240 241 243 244 245 246 246 246 246
318 313 309 304 300 297 294 290 286 281 276 271 264 258 253 251 251 251 252 253 255 254 253 250 248 245 243 244 243 243 242 242 242 242 245 246 246 247 248 248 248 248 248
319 316 310 305 300 295 291 286 283 279 275 271 267 263 260 257 255 254 253 253 253 252 251 249 248 247 245 244 245 245 246 247 247 248 249 250 250 250 250 250 250 250 250
319 316 312 307 301 296 291 287 282 277 274 271 267 264 262 261 259 258 256 254 253 251 250 250 249 248 248 248 248 249 250 251 251 252 252 252 252 252 252 252 253 253 253
317 314 311 308 304 298 292 287 283 278 274 271 268 265 262 260 260 260 258 257 255 253 252 251 250 250 250 250 251 252 253 255 256 256 256 255 254 254 255 255 255 254 255
316 312 309 306 303 299 294 289 283 279 275 271 268 265 262 260 259 258 258 258 256 255 255 254 253 253 253 252 253 254 256 258 260 261 260 259 257 256 256 256 256 255 256
314 311 307 303 300 297 294 289 285 280 276 272 268 265 262 260 259 258 257 256 256 256 255 255 254 254 255 255 255 256 258 260 262 263 263 262 260 258 257 256 255 255 256
311 308 305 301 297 294 291 288 285 281 277 273 269 266 263 261 259 258 257 257 256 255 255 255 255 255 256 256 256 257 258 259 261 262 262 262 261 259 258 256 255 255 256
308 305 301 298 294 291 288 285 282 280 277 274 270 267 265 262 260 259 258 257 256 256 255 255 255 255 255 256 256 257 258 258 259 260 261 260 260 259 258 257 256 256 255
308 305 302 298 294 291 287 284 281 278 275 273 271 269 266 264 262 260 259 258 257 256 256 255 255 255 255 255 256 256 257 257 258 258 258 258 258 257 257 256 256 256 256
313 310 307 304 300 296 292 288 284 281 277 274 271 269 267 265 264 262 261 259 258 257 256 256 256 255 255 255 255 255 255 256 256 256 256 256 256 255 255 255 255 255 255
325 323 321 319 316 313 308 303 298 293 287 282 278 274 270 267 266 264 262 261 260 259 258 257 256 255 255 255 255 255 255 255 255 255 255 255 255 254 254 254 254 254 254
342 342 341 340 339 336 333 329 324 319 312 305 297 290 283 277 272 268 266 264 262 261 260 259 258 257 256 255 255 254 254 254 254 254 254 254 254 254 254 254 254 254 254
355 354 352 351 349 347 346 344 341 338 334 330 325 318 310 301 292 283 276 271 267 264 262 261 260 259 258 258 257 256 255 255 254 254 254 253 254 254 254 254 254 255 255
359 357 355 353 351 349 347 345 343 340 338 337 336 334 331 326 318 308 298 288 280 273 268 265 262 260 259 258 258 257 256 255 255 255 254 254 254 254 254 254 254 255 256
1 358 356 354 351 349 346 343 340 337 334 332 332 332 332 331 330 326 319 309 298 288 280 273 268 264 261 258 257 256 255 255 254 254 254 254 254 254 254 254 254 255 256
3 0 358 356 354 351 347 343 338 334 330 327 325 325 326 327 328 328 327 323 316 307 297 288 280 274 267 262 258 255 254 253 252 251 251 252 252 252 252 252 253 254 255
5 4 2 360 357 354 350 345 340 334 329 324 321 319 320 322 323 324 327 327 324 319 311 303 294 286 278 270 262 256 252 249 248 247 247 246 246 246 246 247 248 249 251
Height
5495 5488 5484 5483 5483 5484 5486 5488 5490 5494 5498 5502 5508 5513 5518 5522 5526 5530 5532 5535 5537 5540 5543 5546 5549 5552 5555 5558 5561 5564 5568 5572 5577 5582 5585 5589 5593 5599 5604 5608 5611 5614 5618
5484 5477 5473 5471 5471 5471 5472 5473 5475 5478 5483 5487 5492 5498 5503 5508 5512 5516 5518 5521 5524 5527 5529 5532 5534 5537 5540 5542 5545 5548 5552 5556 5561 5567 5571 5575 5579 5585 5590 5594 5597 5600 5604
5478 5472 5468 5465 5463 5461 5461 5461 5463 5466 5469 5474 5479 5483 5489 5494 5498 5502 5504 5508 5510 5513 5515 5517 5519 5522 5524 5527 5530 5533 5537 5541 5546 5552 5558 5562 5566 5571 5576 5580 5584 5587 5591
5475 5469 5464 5460 5457 5454 5452 5452 5453 5455 5458 5462 5466 5471 5476 5480 5484 5488 5491 5494 5497 5499 5501 5503 5505 5507 5510 5512 5515 5518 5522 5527 5532 5538 5544 5549 5554 5559 5563 5567 5571 5574 5578
5471 5466 5461 5457 5453 5449 5447 5446 5446 5447 5449 5452 5456 5460 5464 5468 5472 5476 5479 5482 5484 5486 5488 5489 5491 5493 5496 5498 5501 5504 5508 5514 5519 5525 5531 5537 5542 5546 5551 5555 5559 5562 5566
5468 5462 5457 5453 5449 5445 5442 5441 5440 5440 5441 5444 5447 5450 5454 5458 5461 5465 5467 5469 5471 5473 5475 5477 5479 5481 5483 5486 5488 5492 5496 5501 5507 5513 5519 5524 5530 5535 5539 5543 5547 5550 5554
5463 5458 5453 5449 5445 5441 5438 5436 5435 5435 5435 5436 5439 5441 5444 5447 5450 5453 5456 5458 5460 5462 5463 5465 5466 5469 5471 5474 5476 5480 5485 5490 5497 5502 5507 5512 5518 5523 5527 5530 5534 5537 5541
5458 5453 5448 5444 5440 5437 5434 5432 5430 5430 5430 5430 5431 5433 5435 5438 5440 5442 5444 5446 5448 5450 5451 5453 5455 5458 5460 5462 5465 5470 5474 5480 5485 5491 5496 5500 5504 5509 5513 5517 5521 5525 5528
5451 5446 5442 5438 5434 5431 5429 5427 5425 5424 5424 5424 5424 5425 5427 5429 5430 5432 5434 5436 5438 5439 5440 5442 5444 5447 5450 5452 5455 5460 5464 5469 5474 5478 5482 5486 5491 5496 5500 5504 5508 5511 5515
5444 5439 5435 5431 5427 5424 5422 5420 5418 5417 5417 5416 5416 5417 5418 5419 5420 5422 5424 5426 5427 5428 5430 5432 5433 5435 5438 5441 5445 5449 5453 5457 5461 5466 5469 5474 5478 5482 5486 5490 5494 5497 5500
5436 5431 5426 5422 5419 5416 5414 5412 5410 5409 5408 5408 5408 5408 5409 5409 5410 5411 5413 5414 5416 5417 5419 5422 5423 5424 5427 5431 5434 5438 5441 5445 5449 5453 5457 5460 5464 5468 5472 5475 5478 5482 5485
5428 5423 5418 5413 5410 5406 5404 5402 5400 5399 5398 5398 5398 5398 5398 5399 5399 5400 5401 5403 5404 5406 5408 5410 5412 5414 5416 5419 5422 5425 5429 5432 5435 5439 5443 5447 5450 5453 5456 5460 5463 5467 5469
5420 5414 5409 5404 5400 5396 5393 5391 5389 5388 5387 5386 5386 5386 5386 5386 5387 5388 5389 5390 5392 5393 5395 5397 5400 5402 5404 5407 5410 5412 5416 5418 5421 5425 5428 5431 5435 5438 5441 5444 5448 5451 5453
5411 5405 5400 5395 5390 5386 5382 5380 5377 5375 5374 5373 5372 5372 5372 5372 5373 5374 5375 5376 5378 5379 5381 5383 5386 5389 5391 5393 5396 5399 5401 5404 5407 5409 5412 5415 5418 5422 5425 5428 5431 5435 5437
5400 5394 5389 5384 5379 5375 5371 5367 5364 5362 5359 5358 5357 5356 5356 5356 5356 5357 5358 5360 5361 5363 5365 5367 5370 5373 5375 5378 5381 5383 5386 5389 5391 5394 5396 5399 5402 5405 5407 5411 5414 5418 5421
5388 5382 5376 5371 5366 5361 5357 5353 5349 5346 5344 5342 5340 5339 5339 5338 5338 5339 5340 5341 5343 5344 5346 5349 5351 5354 5357 5360 5363 5366 5369 5372 5374 5377 5380 5382 5385 5388 5390 5393 5397 5401 5404
5373 5367 5360 5354 5349 5344 5339 5336 5332 5329 5325 5323 5322 5320 5319 5319 5318 5318 5319 5320 5322 5323 5325 5328 5330 5333 5336 5339 5342 5346 5349 5352 5356 5359 5362 5365 5368 5371 5374 5376 5379 5383 5387
5356 5348 5340 5334 5328 5322 5317 5313 5309 5307 5304 5301 5299 5298 5297 5297 5296 5296 5296 5297 5299 5300 5302 5304 5307 5310 5313 5317 5320 5324 5328 5331 5335 5339 5343 5346 5350 5353 5357 5360 5363 5366 5371
5338 5329 5321 5313 5306 5300 5294 5289 5285 5281 5278 5276 5274 5273 5271 5271 5271 5271 5271 5272 5273 5275 5277 5280 5282 5285 5289 5293 5297 5301 5305 5309 5313 5317 5322 5326 5330 5335 5338 5342 5346 5349 5353
5324 5315 5306 5297 5290 5282 5275 5269 5264 5259 5255 5251 5248 5246 5245 5244 5243 5243 5243 5244 5245 5248 5250 5253 5256 5259 5263 5267 5272 5276 5281 5286 5290 5295 5300 5304 5309 5314 5319 5323 5327 5332 5336
5317 5307 5298 5289 5280 5273 5265 5258 5251 5245 5239 5234 5229 5225 5222 5220 5218 5217 5216 5216 5217 5219 5221 5224 5227 5231 5235 5240 5245 5250 5256 5261 5266 5271 5277 5282 5288 5293 5298 5303 5308 5313 5318
5314 5304 5295 5285 5276 5268 5260 5252 5245 5238 5231 5225 5219 5213 5208 5204 5200 5197 5194 5193 5192 5193 5194 5196 5199 5202 5206 5211 5216 5222 5228 5234 5239 5246 5252 5259 5265 5271 5277 5283 5288 5293 5298
5313 5303 5293 5283 5273 5264 5256 5248 5240 5233 5226 5219 5212 5206 5200 5195 5189 5185 5180 5177 5175 5173 5173 5173 5174 5176 5179 5183 5187 5193 5199 5205 5212 5219 5226 5234 5241 5248 5254 5261 5267 5273 5278
5313 5301 5291 5280 5270 5261 5251 5242 5234 5226 5219 5212 5205 5199 5193 5187 5182 5176 5171 5167 5163 5160 5158 5157 5156 5157 5158 5160 5163 5167 5172 5178 5184 5191 5199 5207 5215 5223 5231 5238 5245 5252 5258
5312 5300 5289 5277 5266 5255 5245 5235 5226 5217 5210 5203 5197 5191 5185 5180 5175 5169 5164 5159 5154 5150 5147 5145 5144 5143 5143 5144 5146 5148 5152 5156 5162 5168 5175 5183 5191 5199 5207 5215 5222 5230 5237
5312 5299 5286 5273 5261 5249 5237 5227 5217 5207 5199 5192 5187 5182 5177 5172 5167 5162 5157 5152 5148 5143 5140 5137 5135 5134 5133 5133 5134 5136 5139 5142 5147 5152 5159 5166 5173 5180 5188 5195 5203 5210 5218